GW1682 Weather Reports


Display with metric or nautical units.
time (UTC)temp
F
wind
direction
speed
MPH
gust
MPH
rain 1hr
in
rain 24hr
in
rain mn
in
humidity
%
barometer
mb
20260505173234 71 259 0.0 0.0 0.00 0.00 0.00 44 1014.5
20260505171731 71 264 0.0 2.0 0.00 0.00 0.00 43 1014.4
20260505170237 72 257 0.0 3.0 0.00 0.00 0.00 42 1014.5
20260505164731 73 258 0.0 2.0 0.00 0.00 0.00 40 1014.4
20260505163230 73 251 1.0 5.0 0.00 0.00 0.00 38 1014.5
20260505153231 74 238 1.0 6.0 0.00 0.00 0.00 35 1014.3
20260505151730 75 223 1.0 6.0 0.00 0.00 0.00 34 1014.4
20260505140231 76 125 3.0 5.0 0.00 0.00 0.00 34 1014.5
20260505124730 76 223 2.0 7.0 0.00 0.00 0.00 32 1015.1
20260505123234 77 272 2.0 6.0 0.00 0.00 0.00 33 1015.3
20260505121730 76 265 2.0 7.0 0.00 0.00 0.00 33 1015.4
20260505120230 75 202 2.0 6.0 0.00 0.00 0.00 33 1015.5
20260505114730 74 164 5.0 11.0 0.00 0.00 0.00 36 1015.6
20260505113231 74 230 2.0 7.0 0.00 0.00 0.00 37 1015.7
20260505111731 74 252 1.0 6.0 0.00 0.00 0.00 40 1015.7
20260505110231 74 224 3.0 9.0 0.00 0.00 0.00 42 1015.8
20260505101731 73 262 1.0 7.0 0.00 0.00 0.00 39 1016.0
20260505100230 73 275 2.0 7.0 0.00 0.00 0.00 41 1016.0
20260505094731 72 216 2.0 7.0 0.00 0.00 0.00 49 1016.1
20260505093230 72 237 1.0 4.0 0.00 0.00 0.00 50 1016.1
20260505091759 72 244 2.0 7.0 0.00 0.00 0.00 50 1016.2
20260505090234 71 166 2.0 4.0 0.00 0.00 0.00 48 1016.1
20260505084749 71 188 2.0 5.0 0.00 0.00 0.00 50 1016.3
20260505081748 69 245 1.0 4.0 0.00 0.00 0.00 43 1016.4
20260505080235 69 244 1.0 4.0 0.00 0.00 0.00 41 1016.5
20260505074735 68 149 0.0 4.0 0.00 0.00 0.00 42 1016.5
20260505070238 66 265 0.0 2.0 0.00 0.00 0.00 44 1016.4
20260505064733 65 207 1.0 3.0 0.00 0.00 0.00 46 1016.4
20260505063232 64 255 0.0 0.0 0.00 0.00 0.00 46 1016.3
20260505061739 64 224 0.0 0.0 0.00 0.00 0.00 44 1016.3
20260505060239 62 224 0.0 0.0 0.00 0.00 0.00 53 1016.2
20260505054733 61 235 0.0 0.0 0.00 0.00 0.00 55 1016.3
20260505053232 60 195 0.0 2.0 0.00 0.00 0.00 60 1016.3
20260505051732 59 176 1.0 2.0 0.00 0.00 0.00 56 1016.2
20260505050238 58 159 1.0 2.0 0.00 0.00 0.00 53 1016.1
20260505041730 55 155 2.0 3.0 0.00 0.00 0.00 55 1015.9
20260505034730 55 144 1.0 3.0 0.00 0.00 0.00 58 1015.8
20260505031731 54 158 2.0 3.0 0.00 0.00 0.00 63 1015.9
20260505030230 54 175 2.0 3.0 0.00 0.00 0.00 64 1015.8
20260505024735 54 162 2.0 3.0 0.00 0.00 0.00 69 1015.9
20260505023228 55 159 1.0 3.0 0.00 0.00 0.00 76 1015.9
20260505021739 55 144 2.0 3.0 0.00 0.00 0.00 76 1016.0
20260505014739 55 151 2.0 3.0 0.00 0.00 0.00 75 1016.1
20260505013234 55 158 2.0 3.0 0.00 0.00 0.00 74 1016.2
20260505010228 56 148 2.0 5.0 0.00 0.00 0.00 72 1016.3
20260505004729 56 147 2.0 3.0 0.00 0.00 0.00 70 1016.4
20260505003229 56 154 2.0 4.0 0.00 0.00 0.00 68 1016.4
20260505001728 56 161 1.0 4.0 0.00 0.00 0.00 63 1016.5
20260504234727 55 149 0.0 2.0 0.00 0.00 0.00 60 1016.8
20260504233224 55 152 1.0 2.0 0.00 0.00 0.00 59 1016.8
20260504231718 55 161 0.0 2.0 0.00 0.00 0.00 59 1016.8
20260504230218 55 151 1.0 3.0 0.00 0.00 0.00 61 1017.1
20260504224716 55 157 2.0 4.0 0.00 0.00 0.00 62 1017.2
20260504223218 55 149 1.0 3.0 0.00 0.00 0.00 60 1017.3
20260504221712 55 158 2.0 3.0 0.00 0.00 0.00 58 1017.4
20260504220209 55 151 2.0 2.0 0.00 0.00 0.00 55 1017.5
20260504214708 55 158 0.0 0.0 0.00 0.00 0.00 53 1017.5
20260504213204 55 148 0.0 0.0 0.00 0.00 0.00 54 1017.5
20260504211704 56 155 0.0 0.0 0.00 0.00 0.00 53 1017.4
20260504210207 56 148 0.0 2.0 0.00 0.00 0.00 53 1017.5
20260504204704 56 159 0.0 0.0 0.00 0.00 0.00 50 1017.5
20260504203202 56 141 0.0 0.0 0.00 0.00 0.00 52 1017.5
20260504194708 57 161 0.0 3.0 0.00 0.00 0.00 53 1017.8
20260504193203 57 165 2.0 2.0 0.00 0.00 0.00 54 1017.5
20260504190203 57 145 1.0 2.0 0.00 0.00 0.00 61 1017.5
20260504184704 58 149 1.0 2.0 0.00 0.00 0.00 63 1017.4
20260504183202 58 148 1.0 2.0 0.00 0.00 0.00 63 1017.2
20260504181703 58 144 0.0 4.0 0.00 0.00 0.00 62 1017.2
20260504180204 59 142 1.0 3.0 0.00 0.00 0.00 62 1017.0
20260504174701 60 266 0.0 2.0 0.00 0.00 0.00 60 1017.0